Location: Oshawa
(43.9000°N, 78.8670°W)
Time: 18:55:24
(UTC-05:00)

ITAMSAT 1 - Visible Passes

Search period start: 24 February 2017 00:00
Search period end: 06 March 2017 00:00
Orbit: 785 x 796 km, 98.8° (Epoch: 23 February)

Date Brightness Start Highest point End Pass type
(mag) Time Alt. Az. Time Alt. Az. Time Alt. Az.
24 Feb 10.1 03:10:57 10° NNE 03:12:17 18° NNE 03:12:17 18° NNE visible
24 Feb 9.3 04:50:55 10° N 04:53:02 20° NNW 04:53:02 20° NNW visible
25 Feb 10.5 02:42:10 10° NE 02:42:43 12° NE 02:42:43 12° NE visible
25 Feb 9.2 04:21:06 10° N 04:23:28 25° NNW 04:23:28 25° NNW visible
26 Feb 9.3 03:51:34 10° NNE 03:53:54 27° N 03:53:54 27° N visible
26 Feb 9.6 05:33:21 10° NNW 05:34:39 12° NW 05:34:39 12° NW visible
27 Feb 9.7 03:22:17 10° NNE 03:24:20 23° NNE 03:24:20 23° NNE visible
27 Feb 9.3 05:02:38 10° NNW 05:05:04 19° NW 05:05:04 19° NW visible
28 Feb 10.2 02:53:20 10° NE 02:54:46 17° NE 02:54:46 17° NE visible
28 Feb 8.9 04:32:40 10° N 04:35:30 27° NNW 04:35:30 27° NNW visible
01 Mar 10.6 02:24:59 10° NE 02:25:11 11° NE 02:25:11 11° NE visible
01 Mar 8.9 04:03:02 10° N 04:05:56 33° N 04:05:56 33° N visible
02 Mar 9.2 03:33:40 10° NNE 03:36:22 31° NNE 03:36:22 31° NNE visible
02 Mar 9.3 05:14:27 10° NNW 05:17:07 17° NW 05:17:07 17° NW visible
03 Mar 9.8 03:04:35 10° NNE 03:06:48 23° NE 03:06:48 23° NE visible
03 Mar 8.9 04:44:18 10° N 04:47:33 27° NW 04:47:33 27° NW visible
04 Mar 10.3 02:35:56 10° NE 02:37:14 15° NE 02:37:14 15° NE visible
04 Mar 8.5 04:14:33 10° N 04:17:59 37° NNW 04:17:59 37° NNW visible
05 Mar 8.7 03:45:05 10° NNE 03:48:25 40° NNE 03:48:25 40° NNE visible
05 Mar 9.4 05:26:24 10° NNW 05:29:04 14° WNW 05:29:10 14° WNW visible
